Tracking 35331 objects as of 16-Sep-2026
HD Live streaming from Space Station
objects crossing your sky now

SL-12 R/B(1)


SL-12 R/B(1) is no longer on orbit


NORAD ID: 25643
Int'l Code: 1999-010B
Launch date: February 28, 1999
Source: Commonwealth of Independent States (former USSR) (CIS)
Launch site: TYURATAM MISSILE AND SPACE COMPLEX (TTMTR)
Decay date: 1999-03-03

Note: This is a ROCKET BODY
Your satellite tracking list
Your tracking list is empty




NASA's NSSDC Master Catalog

Two Line Element Set (TLE):
1 25643U 99010B   99061.47913895  .45812290  12875-4  18545-3 0  9994
2 25643 051.6328 213.9791 0003642 274.9933 085.3067 16.56772493   381
Source of the keplerian elements: AFSPC